Regional Weather Roundup
Issued by NWS Green Bay, WI

Home | Current Version | Previous Version | Text Only | Print | Product List | Glossary On
Versions: 1 2 3 4 5 6 7 8 9 10 11 12 13 14 15 16 17 18 19 20 21 22 23 24 25 26 27 28 29 30 31 32 33 34 35 36 37 38 39 40 41 42 43 44 45 46 47 48 49 50
000
ASUS43 KGRB 112011
RWRGRB

NORTH-CENTRAL AND NORTHEAST WISCONSIN REGIONAL WEATHER ROUNDUP
NATIONAL WEATHER SERVICE GREEN BAY WI
200 PM CST THU FEB 11 2016

WIZ005-009-010>012-018-019-112100-
NORTH CENTRAL WISCONSIN

CITY           SKY/WX    TMP DP  RH WIND       PRES   REMARKS
IRONWOOD       SUNNY     10  -2  56 W10       30.13F WCI  -3
MANITOWISH WTR CLOUDY    13  -3  49 W8        30.11F WCI   1
ARBOR VITAE    MOSUNNY   14  -3  45 NW9       30.12F WCI   2
EAGLE RIVER    SUNNY     13  -6  42 N8        30.10F WCI   2
LAND O LAKES   SUNNY     13  -2  51 W5        30.10F WCI   6
RHINELANDER    CLOUDY    14  -5  42 W12       30.12F WCI   0
PHILLIPS       PTSUNNY   12  -6  44 SW10      30.15F WCI  -1
ANTIGO         SUNNY     14   0  53 W10G17    30.15S WCI   1
TOMAHAWK       SUNNY     15  -7  38 W3        30.16S
MERRILL        SUNNY     17  -4  39 W13       30.18S WCI   4
$$

WIZ013-073-112100-
NORTHEAST WISCONSIN

CITY           SKY/WX    TMP DP  RH WIND       PRES   REMARKS
IRON MOUNTAIN  MOSUNNY   17   1  49 NW13G21   30.12F WCI   4
MARINETTE      SUNNY     18   1  49 W7        30.19F WCI   8
OCONTO         SUNNY     17   1  48 W9        30.21F WCI   6
$$

WIZ017-030-035>037-045-112100-
CENTRAL WISCONSIN

CITY           SKY/WX    TMP DP  RH WIND       PRES   REMARKS
MEDFORD        PTSUNNY   10  -2  56 SW8       30.17F WCI  -1
WAUSAU         SUNNY     14  -3  47 W14       30.18F WCI  -1
MOSINEE        SUNNY     12  -2  52 W10       30.21F WCI  -1
MARSHFIELD     SUNNY     13  -2  51 NW7       30.19F WCI   3
WISC RAPIDS    SUNNY     15  -4  42 W10       30.24F WCI   2
STEVENS POINT  SUNNY     13  -5  44 W8        30.22F WCI   2
WAUPACA        SUNNY     19  -2  39 SW9G16    30.24F WCI   9
SHAWANO        SUNNY     20   1  43 SW8       30.21F
CLINTONVILLE   SUNNY     19   0  42 W10       30.21F WCI   8
WAUTOMA        SUNNY     17  -4  39 W12       30.25F WCI   4
$$

WIZ038-039-048-051-112100-
FOX VALLEY

CITY           SKY/WX    TMP DP  RH WIND       PRES   REMARKS
NWS GREEN BAY  SUNNY     16   1  51 W9        30.23F WCI   4
APPLETON       MOSUNNY   18   0  45 SW10      30.21F WCI   6
OSHKOSH        SUNNY     16   0  49 W7        30.24F WCI   6
FOND DU LAC    SUNNY     15   0  51 W12       30.25F WCI   2
$$

WIZ022-050-052-112100-
EAST CENTRAL WISCONSIN

CITY           SKY/WX    TMP DP  RH WIND       PRES   REMARKS
EPHRAIM        FAIR      15   2  55 W7        30.18F WCI   6
STURGEON BAY   SUNNY     14   0  52 W10G17    30.23F WCI   1
MANITOWOC      SUNNY     17   3  54 W14       30.25F WCI   3
SHEBOYGAN      SUNNY     15   1  53 W14       30.25F WCI   0
$$

LMZ563-521-522-541>543-112100-
LAKESHORE

STATION/POSITION TIME  TEMP    WIND        PRES    VSBY  WAVE
                       AIR SEA DIR/SP/G                  HT/PER
                 (UTC) (F)     (DEG/KT/KT) (MB)    (MI)  (FT/S)
SHEBOYGAN LKSHOR 2000   15     290/ 10/ 13 1026.1F
KEWAUNEE LKSHORE 1900   14     270/  9/ 12 1023.3F
ALGOMA MARINA    1911          290/  3/  9   N/A
CHAMBERS ISLAND  1900   17     220/  7/ 11 1023.0F
MENOMINEE LKSHOR 1900   16     270/  4     1022.1F
$$



USA.gov is the U.S. government's official web portal to all federal, state and local government web resources and services.